CXA126 ZHCC-ZSQZ

Flight info

Callsign CXA126
Flight time N/A
Altitude 31100
Route RUM9W RUMGU W594 EPGOS W128 FYG B208 HFE R343 MADUK DCT FQG
Aircraft B738/M-SDE2E3FGHIRWXY/LB1

Departure

Time N/A
Airport Zhengzhou Xinzheng International Airport (ZHCC)

Arrival

Time 2026-04-28 14:47
Airport Quanzhou Jinjiang International Airport (ZSQZ)
Time Latitude Longitude Altitude Speed Heading
2026-04-28 13:38 32.02691 116.95208 31311 ft 497 kts 137°
2026-04-28 13:38 32.00451 116.98317 31312 ft 497 kts 137°
2026-04-28 13:38 31.95983 117.04516 31313 ft 496 kts 137°
2026-04-28 13:39 31.91528 117.10722 31289 ft 496 kts 137°
2026-04-28 13:39 31.87078 117.16919 31288 ft 496 kts 136°
2026-04-28 13:40 31.82741 117.23251 31260 ft 496 kts 136°
2026-04-28 13:40 31.78367 117.29535 31259 ft 496 kts 137°
2026-04-28 13:41 31.73487 117.35137 31261 ft 488 kts 145°
2026-04-28 13:41 31.68409 117.40404 31255 ft 487 kts 146°
2026-04-28 13:42 31.63254 117.45521 31254 ft 483 kts 150°
2026-04-28 13:42 31.57835 117.50150 31237 ft 481 kts 152°
2026-04-28 13:43 31.52358 117.54663 31252 ft 480 kts 152°
2026-04-28 13:43 31.46880 117.59145 31250 ft 480 kts 152°
2026-04-28 13:44 31.41406 117.63611 31251 ft 480 kts 152°
2026-04-28 13:44 31.35747 117.67608 31259 ft 470 kts 162°
2026-04-28 13:45 31.29829 117.70689 31247 ft 467 kts 165°
2026-04-28 13:45 31.23665 117.72995 31240 ft 460 kts 171°
2026-04-28 13:46 31.17535 117.74947 31246 ft 459 kts 172°
2026-04-28 13:46 31.11320 117.76886 31242 ft 459 kts 172°
2026-04-28 13:47 31.05136 117.78802 31243 ft 460 kts 172°
2026-04-28 13:47 30.98955 117.80707 31227 ft 460 kts 172°
2026-04-28 13:48 30.92767 117.82646 31239 ft 461 kts 172°
2026-04-28 13:48 30.86619 117.84601 31242 ft 462 kts 172°
2026-04-28 13:49 30.80392 117.86576 31238 ft 464 kts 172°
2026-04-28 13:49 30.74156 117.88545 31239 ft 465 kts 172°
2026-04-28 13:50 30.67909 117.90513 31232 ft 466 kts 172°
2026-04-28 13:50 30.61652 117.92481 31236 ft 466 kts 172°
2026-04-28 13:51 30.55377 117.94452 31225 ft 467 kts 172°
2026-04-28 13:51 30.49109 117.96419 31212 ft 466 kts 172°
2026-04-28 13:52 30.42854 117.98378 31220 ft 466 kts 171°
2026-04-28 13:52 30.36592 118.00337 31215 ft 466 kts 171°
2026-04-28 13:53 30.30368 118.02282 31213 ft 466 kts 172°
2026-04-28 13:53 30.24105 118.04236 31213 ft 466 kts 171°
2026-04-28 13:54 30.17824 118.06193 31207 ft 466 kts 172°
2026-04-28 13:54 30.11561 118.08141 31180 ft 467 kts 172°
2026-04-28 13:55 30.05283 118.10092 31174 ft 468 kts 172°
2026-04-28 13:55 29.98984 118.12046 31191 ft 469 kts 172°
2026-04-28 13:56 29.92668 118.14004 31158 ft 471 kts 172°
2026-04-28 13:56 29.86331 118.15966 31169 ft 471 kts 172°
2026-04-28 13:57 29.79997 118.17925 31151 ft 471 kts 172°
2026-04-28 13:57 29.73673 118.19879 31148 ft 470 kts 172°
2026-04-28 13:58 29.67377 118.21821 31127 ft 468 kts 172°
2026-04-28 13:58 29.61137 118.23743 31136 ft 466 kts 172°
2026-04-28 13:59 29.54876 118.25667 31138 ft 465 kts 172°
2026-04-28 13:59 29.48624 118.27588 31142 ft 466 kts 172°
2026-04-28 14:00 29.42356 118.29509 31128 ft 466 kts 172°
2026-04-28 14:00 29.36472 118.31311 31136 ft 466 kts 172°
2026-04-28 14:01 29.30189 118.33234 31130 ft 468 kts 172°
2026-04-28 14:01 29.23892 118.35158 31133 ft 469 kts 172°
2026-04-28 14:02 29.17573 118.37086 31105 ft 471 kts 172°
2026-04-28 14:02 29.11233 118.39019 31105 ft 472 kts 171°
2026-04-28 14:03 29.04878 118.40954 31103 ft 473 kts 171°
2026-04-28 14:03 28.98511 118.42890 31111 ft 474 kts 171°
2026-04-28 14:04 28.92136 118.44826 31097 ft 475 kts 171°
2026-04-28 14:04 28.85744 118.46765 31090 ft 475 kts 171°
2026-04-28 14:05 28.79359 118.48699 31080 ft 475 kts 171°
2026-04-28 14:05 28.72977 118.50630 31065 ft 474 kts 171°
2026-04-28 14:06 28.66657 118.52540 31069 ft 473 kts 171°
2026-04-28 14:06 28.60309 118.54456 31066 ft 471 kts 171°
2026-04-28 14:07 28.53973 118.56365 31058 ft 470 kts 170°
2026-04-28 14:07 28.47653 118.58267 31043 ft 469 kts 170°
2026-04-28 14:08 28.41346 118.60163 31044 ft 468 kts 170°
2026-04-28 14:08 28.35069 118.62047 31049 ft 465 kts 170°
2026-04-28 14:09 28.28800 118.63928 31035 ft 467 kts 170°
2026-04-28 14:09 28.22515 118.65810 31042 ft 468 kts 170°
2026-04-28 14:10 28.16213 118.67694 31029 ft 469 kts 169°
2026-04-28 14:10 28.09903 118.69580 31039 ft 469 kts 169°
2026-04-28 14:11 28.03595 118.71462 31034 ft 469 kts 169°
2026-04-28 14:11 27.97269 118.73348 31028 ft 470 kts 169°
2026-04-28 14:12 27.90951 118.75229 31024 ft 469 kts 169°
2026-04-28 14:12 27.84637 118.77107 31030 ft 469 kts 169°
2026-04-28 14:13 27.78319 118.78984 31040 ft 470 kts 169°
2026-04-28 14:13 27.72041 118.80846 31033 ft 470 kts 169°
2026-04-28 14:14 27.65717 118.82719 31039 ft 470 kts 169°
2026-04-28 14:14 27.59391 118.84591 31039 ft 470 kts 169°
2026-04-28 14:15 27.53073 118.86459 31033 ft 469 kts 169°
2026-04-28 14:15 27.46765 118.88322 31043 ft 469 kts 169°
2026-04-28 14:16 27.40446 118.90184 31040 ft 469 kts 169°
2026-04-28 14:16 27.34131 118.92044 31043 ft 469 kts 169°
2026-04-28 14:17 27.27818 118.93901 31059 ft 469 kts 169°
2026-04-28 14:17 27.22576 118.95442 31063 ft 469 kts 169°
2026-04-28 14:18 27.15227 118.97599 31051 ft 469 kts 169°
2026-04-28 14:18 27.08909 118.99451 31063 ft 469 kts 169°
2026-04-28 14:19 27.03655 119.00990 31067 ft 468 kts 169°
2026-04-28 14:19 26.97350 119.02834 31089 ft 468 kts 169°
2026-04-28 14:20 26.91044 119.04677 31086 ft 468 kts 169°
2026-04-28 14:20 26.84744 119.06515 31080 ft 467 kts 169°
2026-04-28 14:21 26.78452 119.08349 31080 ft 467 kts 169°
2026-04-28 14:21 26.72173 119.10178 31077 ft 466 kts 169°
2026-04-28 14:22 26.65945 119.11989 31083 ft 465 kts 169°
2026-04-28 14:22 26.59680 119.13809 31072 ft 465 kts 169°
2026-04-28 14:23 26.53410 119.15628 31086 ft 466 kts 169°
2026-04-28 14:23 26.47135 119.17447 31081 ft 466 kts 169°
2026-04-28 14:24 26.40850 119.19267 31081 ft 467 kts 169°
2026-04-28 14:24 26.34541 119.21091 31074 ft 468 kts 169°
2026-04-28 14:25 26.28233 119.22914 31063 ft 468 kts 168°
2026-04-28 14:25 26.21924 119.24734 30714 ft 473 kts 168°
2026-04-28 14:26 26.18731 119.25654 30065 ft 473 kts 168°
2026-04-28 14:26 26.15545 119.26572 29207 ft 473 kts 168°
2026-04-28 14:26 26.12357 119.27491 28349 ft 473 kts 168°
2026-04-28 14:26 26.09176 119.28407 27471 ft 473 kts 168°
2026-04-28 14:27 26.05980 119.29327 26595 ft 474 kts 168°
2026-04-28 14:27 26.02800 119.30242 25937 ft 470 kts 168°
2026-04-28 14:27 25.99647 119.31149 25287 ft 466 kts 169°
2026-04-28 14:27 25.96515 119.32049 24645 ft 463 kts 169°
2026-04-28 14:28 25.93407 119.32941 23984 ft 460 kts 169°
2026-04-28 14:28 25.90313 119.33828 23303 ft 457 kts 169°
2026-04-28 14:28 25.87274 119.34700 22600 ft 454 kts 169°
2026-04-28 14:28 25.84241 119.35570 22004 ft 449 kts 169°
2026-04-28 14:29 25.81257 119.36426 21712 ft 437 kts 169°
2026-04-28 14:29 25.78306 119.37178 21101 ft 430 kts 177°
2026-04-28 14:29 25.75388 119.37032 20528 ft 417 kts 197°
2026-04-28 14:29 25.72696 119.35963 19959 ft 407 kts 209°
2026-04-28 14:30 25.70347 119.34266 19364 ft 400 kts 223°
2026-04-28 14:30 25.68396 119.32110 18773 ft 396 kts 228°
2026-04-28 14:30 25.66521 119.29880 18173 ft 394 kts 229°
2026-04-28 14:30 25.64672 119.27651 17510 ft 391 kts 229°
2026-04-28 14:31 25.62835 119.25444 16913 ft 387 kts 229°
2026-04-28 14:31 25.61009 119.23267 16332 ft 384 kts 228°
2026-04-28 14:31 25.59190 119.21114 15745 ft 381 kts 228°
2026-04-28 14:31 25.57384 119.18985 15188 ft 378 kts 227°
2026-04-28 14:32 25.55586 119.16874 14604 ft 375 kts 227°
2026-04-28 14:32 25.53821 119.14806 14045 ft 373 kts 227°
2026-04-28 14:32 25.52042 119.12722 13427 ft 371 kts 227°
2026-04-28 14:32 25.50277 119.10655 12846 ft 369 kts 227°
2026-04-28 14:33 25.48517 119.08597 12271 ft 366 kts 227°
2026-04-28 14:33 25.46775 119.06559 11712 ft 363 kts 227°
2026-04-28 14:33 25.45050 119.04541 11239 ft 358 kts 226°
2026-04-28 14:33 25.43369 119.02577 11109 ft 344 kts 226°
2026-04-28 14:34 25.40194 118.98868 10825 ft 321 kts 226°
2026-04-28 14:34 25.38685 118.97107 10688 ft 310 kts 226°
2026-04-28 14:34 25.37227 118.95406 10561 ft 300 kts 226°
2026-04-28 14:35 25.35811 118.93754 10443 ft 291 kts 226°
2026-04-28 14:35 25.34440 118.92155 10310 ft 282 kts 226°
2026-04-28 14:35 25.33123 118.90593 10193 ft 272 kts 227°
2026-04-28 14:35 25.31867 118.89072 10070 ft 264 kts 227°
2026-04-28 14:36 25.30651 118.87594 9901 ft 259 kts 227°
2026-04-28 14:36 25.29438 118.86123 9618 ft 259 kts 227°
2026-04-28 14:36 25.28228 118.84655 9331 ft 258 kts 227°
2026-04-28 14:36 25.27040 118.83215 9045 ft 256 kts 227°
2026-04-28 14:37 25.25847 118.81770 8778 ft 254 kts 227°
2026-04-28 14:37 25.24656 118.80329 8491 ft 253 kts 226°
2026-04-28 14:37 25.23472 118.78897 8219 ft 252 kts 226°
2026-04-28 14:37 25.22291 118.77469 7942 ft 251 kts 226°
2026-04-28 14:38 25.21113 118.76046 7661 ft 251 kts 226°
2026-04-28 14:38 25.19936 118.74624 7385 ft 251 kts 226°
2026-04-28 14:38 25.18760 118.73203 7101 ft 251 kts 226°
2026-04-28 14:38 25.17584 118.71783 6834 ft 250 kts 226°
2026-04-28 14:39 25.16410 118.70367 6567 ft 250 kts 226°
2026-04-28 14:39 25.15240 118.68955 6387 ft 247 kts 226°
2026-04-28 14:39 25.14091 118.67568 6228 ft 241 kts 226°
2026-04-28 14:39 25.12971 118.66218 6130 ft 235 kts 225°
2026-04-28 14:40 25.11886 118.64910 6037 ft 228 kts 225°
2026-04-28 14:40 25.11185 118.64065 5966 ft 223 kts 225°
2026-04-28 14:40 25.09496 118.62890 5800 ft 214 kts 186°
2026-04-28 14:40 25.08000 118.63015 5519 ft 222 kts 163°
2026-04-28 14:41 25.06638 118.63763 5309 ft 217 kts 149°
2026-04-28 14:41 25.05399 118.64688 5038 ft 213 kts 148°
2026-04-28 14:41 25.04197 118.65603 4817 ft 207 kts 148°
2026-04-28 14:41 25.03027 118.66500 4566 ft 203 kts 148°
2026-04-28 14:42 25.01872 118.67376 4344 ft 200 kts 148°
2026-04-28 14:42 25.00731 118.68234 4140 ft 196 kts 148°
2026-04-28 14:42 24.99620 118.69067 3936 ft 190 kts 149°
2026-04-28 14:42 24.98548 118.69838 3716 ft 183 kts 157°
2026-04-28 14:43 24.97345 118.69932 3528 ft 170 kts 205°
2026-04-28 14:43 24.96313 118.69294 3374 ft 178 kts 207°
2026-04-28 14:43 24.95226 118.68647 3167 ft 179 kts 207°
2026-04-28 14:43 24.94128 118.68036 2947 ft 175 kts 207°
2026-04-28 14:44 24.93059 118.67409 2715 ft 172 kts 208°
2026-04-28 14:44 24.92010 118.66763 2495 ft 174 kts 209°
2026-04-28 14:44 24.90960 118.66097 2278 ft 174 kts 209°
2026-04-28 14:44 24.89913 118.65428 2064 ft 175 kts 209°
2026-04-28 14:45 24.88870 118.64763 1819 ft 171 kts 209°
2026-04-28 14:45 24.87848 118.64111 1598 ft 168 kts 209°
2026-04-28 14:45 24.86850 118.63475 1420 ft 163 kts 209°
2026-04-28 14:45 24.85857 118.62843 1182 ft 163 kts 209°
2026-04-28 14:46 24.84895 118.62228 983 ft 157 kts 209°
2026-04-28 14:46 24.83951 118.61626 789 ft 157 kts 210°
2026-04-28 14:46 24.82997 118.61026 599 ft 158 kts 210°
2026-04-28 14:46 24.82088 118.60439 390 ft 157 kts 209°
2026-04-28 14:47 24.81147 118.59839 188 ft 157 kts 208°
2026-04-28 14:47 24.80209 118.59236 9 ft 149 kts 211°
2026-04-28 14:47 24.79452 118.58751 6 ft 97 kts 210°
2026-04-28 14:47 24.79053 118.58494 6 ft 36 kts 211°
2026-04-28 14:48 24.78897 118.58393 7 ft 25 kts 210°
2026-04-28 14:48 24.78790 118.58324 7 ft 14 kts 211°
2026-04-28 14:48 24.78736 118.58269 7 ft 10 kts 263°
2026-04-28 14:48 24.78767 118.58192 6 ft 13 kts 301°
2026-04-28 14:49 24.78837 118.58147 8 ft 13 kts 20°
2026-04-28 14:49 24.78915 118.58195 8 ft 13 kts 30°
2026-04-28 14:49 24.78998 118.58249 8 ft 15 kts 30°
2026-04-28 14:49 24.79096 118.58313 8 ft 18 kts 30°
2026-04-28 14:50 24.79210 118.58387 6 ft 20 kts 31°
2026-04-28 14:50 24.79339 118.58469 8 ft 23 kts 30°
2026-04-28 14:50 24.79481 118.58560 8 ft 24 kts 30°
2026-04-28 14:50 24.79621 118.58650 8 ft 23 kts 30°
2026-04-28 14:51 24.79757 118.58738 6 ft 22 kts 30°
2026-04-28 14:51 24.79885 118.58820 8 ft 21 kts 30°
2026-04-28 14:51 24.80000 118.58894 8 ft 14 kts 30°
2026-04-28 14:51 24.80069 118.58894 8 ft 11 kts 313°
2026-04-28 14:52 24.80136 118.58883 8 ft 10 kts 27°
2026-04-28 14:52 24.80198 118.58924 8 ft 10 kts 31°
2026-04-28 14:52 24.80260 118.58955 8 ft 10 kts
2026-04-28 14:52 24.80298 118.58905 8 ft 8 kts 300°
2026-04-28 14:53 24.80306 118.58890 6 ft 0 kts 300°
2026-04-28 14:53 24.80307 118.58889 8 ft 0 kts 301°